Find Starlink 37164

NORAD ID: 68324 Int'l Des: 2026-059 Owner: SPXS Country: US Constellation: starlink operational
LEOCIRCULAR

实时位置

正在加载3D地球...

关于 Starlink 37164

正在加载描述...

即将过境

Passes for default location (London). Set your location on the main map for personalized predictions.

高度历史

Loading altitude history...

两行轨道根数

1 68324U 26059D 26127.26103460 .00016856 00000-0 57995-3 0 9999
2 68324 53.1604 76.1790 0001386 76.9024 283.2131 15.30199044 8273
Epoch: May 7, 2026 • Age: 10 hours

当前状态

高度 478.9 km
速度 7.63 km/s
星下点 43.92°N, 100°E
发射日期 Mar 22, 2026
运行时间 0.1 years
类型 internet

技术详情

分类 Payload
质量 575.00 kg
干质量 530.00 kg
总质量 575.00 kg
长度 0.30 m
直径 4.10 m
跨度 29.00 m
形状 Box + pan
制造商 SPXS
平台类型 Starlink V2MO
阶段状态 In Orbit
所有者/国家 SPXS/US

Most Searched